Home   Weather   Seattle   Past weeks

Flag for USA Past Weather in Seattle, Washington, USA — Yesterday and Last 2 Weeks

Now
57 °F

Broken clouds.


Feels Like: 56 °F
Forecast: 44 / 53 °F
Wind: 6 mph from North

Location: Seattle Boeing Field

Current Time: Apr 27, 2017 at 3:33:00 pm

Latest Report: Apr 27, 2017 at 2:53 pm


Visibility: 10 mi

Pressure: 30.08 "Hg

Humidity: 58%

Dew Point: 42 °F

Location of SeattleLocation

Past Weather in Seattle — Graph

°F

Seattle Temperature Yesterday

Maximum temperature yesterday: 58 °F (at 1:53 pm)
Minimum temperature yesterday: 47 °F (at 10:53 pm)
Average temperature yesterday: 51 °F

High & Low Weather Summary for the Past Weeks

 TemperatureHumidityPressure
High66 °F (Apr 16, 3:53 pm)100% (Apr 12, 9:53 pm)30.42 "Hg (Apr 12, 9:53 pm)
Low41 °F (Apr 15, 12:53 am)31% (Apr 16, 3:53 pm)29.66 "Hg (Apr 12, 6:53 pm)
Average51 °F78%29.97 "Hg
* Reported Apr 12 1:53 pm — Apr 27 1:53 pm, Seattle, Weather by CustomWeather, © 2017

Note: Actual official high and low records may vary slightly from our data, if they occured in-between our weather recording intervals... More about our weather records

Advertising

Seattle Weather History for the Previous 24 Hours

Scroll right to see more
 ConditionsComfort  
Time TempWeatherWind HumidityBarometerVisibility
1:53 pm
Thu, Apr 27
55 °FPartly sunny.5 mph59%30.07 "Hg10 mi
12:53 pm53 °FBroken clouds.3 mph61%30.07 "Hg10 mi
11:53 am54 °FBroken clouds.6 mph62%30.08 "Hg10 mi
11:00 am51 °FPartly sunny.5 mph66%30.09 "Hg10 mi
9:53 am49 °FPartly sunny.6 mph74%30.08 "Hg10 mi
8:53 am47 °FPartly sunny.6 mph80%30.08 "Hg10 mi
7:53 am46 °FPartly sunny.10 mph83%30.08 "Hg10 mi
6:53 am45 °FPartly sunny.10 mph86%30.06 "Hg10 mi
5:53 am44 °FPassing clouds.8 mph85%30.06 "Hg10 mi
4:53 am44 °FPassing clouds.7 mph85%30.05 "Hg10 mi
3:53 am44 °FMostly cloudy.7 mph85%30.03 "Hg10 mi
2:53 am45 °FLight rain. Mostly cloudy.7 mph90%30.03 "Hg10 mi
1:53 am45 °FMostly cloudy.7 mph90%30.02 "Hg10 mi
12:53 am46 °FMostly cloudy.8 mph83%30.01 "Hg10 mi
11:53 pm
Wed, Apr 26
47 °FMostly cloudy.7 mph80%30.00 "Hg10 mi
11:16 pm47 °FMostly cloudy.5 mph80%29.99 "Hg10 mi
10:53 pm47 °FOvercast.5 mph77%29.99 "Hg10 mi
9:53 pm48 °FPassing clouds.8 mph74%29.97 "Hg10 mi
8:53 pm50 °FPassing clouds.9 mph68%29.93 "Hg10 mi
7:53 pm49 °FMostly cloudy.10 mph84%29.90 "Hg10 mi
6:53 pm49 °FMostly cloudy.14 mph84%29.89 "Hg10 mi
5:53 pm50 °FBroken clouds.12 mph86%29.88 "Hg10 mi
4:53 pm52 °FBroken clouds.12 mph77%29.87 "Hg10 mi
3:53 pm53 °FBroken clouds.9 mph74%29.86 "Hg10 mi
Weather by CustomWeather, © 2017

See weather overviewHow to use our weather pages